Location: Isle-of-Palms
(32.8045°N, 79.7399°W)
Time: 21:42:26
(UTC+00:00)

Hubble Space Telescope - Pass Details

Date: 15 August 2022
Orbit: 532 x 535 km, 28.5° (Epoch: 23 September)

Event Time Altitude Azimuth Distance (km) Brightness Sun altitude
Rises 00:40:23 0° 266° (W) 2,666 5.6 -7.8°
Reaches altitude 10° 00:42:47 10° 257° (WSW) 1,776 4.3 -8.3°
Maximum altitude 00:46:30 33° 192° (SSW) 906 1.8 -9.0°
Enters shadow 00:49:50 12° 130° (SE) 1,646 2.6 -9.6°
